sat.trackr.live / text

‹ back to catalog

UNKNOWN

NORAD 82627

UNKNOWN UNKNOWN UNKNOWN

§ Identity

Operator
Country
Launch date
Launch site
Launch vehicle
Mass (kg)
RCS (m²)

External: N2YO · Heavens-Above

§ Orbital elements

Epoch: 2026-05-23T22:46:52.315968Z

Period
109.38 min
Inclination
82.4743°
Eccentricity
0.0019226
Mean motion
13.16535785 rev/d
Perigee alt
1,183.4 km
Apogee alt
1,212.5 km
Semi-major
7,576.1 km
B*
1.7428e-3
RAAN
132.9568°
Arg perigee
66.8813°
Mean anomaly
321.8925°
Rev number
60,017

§ Raw data

UNKNOWN1 82627U          26143.94921662  .00000679  00000+0  17428-2 0  99952 82627  82.4743 132.9568 0019226  66.8813 321.8925 13.16535785600179

JSON: /api/v1/satellites/82627 · /tle

For live sub-satellite position, see the globe view (requires WebGL).

§ Visibility from observer

Set your observer location to see the next 7 days of passes ≥ 10°. The values pass through the URL so the page stays shareable.

No JS? Fill the form by hand. The geolocation button needs JavaScript.